Weather in Tuzla

Bosnia and Herzegovina     44°32′04″N   18°41′32″E
temp.,
°C
wind,
m/s
gust,
m/s
humid.,
%
clouds,
%
prec.,
mm/h
press.,
hPa
HPBL,
m
7 may, fri
fri723:00+10sse2290100 0.0 101227
02:00+10s2281100 0.0 101119
05:00+9s227699 0.0 101127
08:00+14s256899 0.0 1011205
11:00+20wsw61050100 0.0 10101911
14:00+18nw3965100 0.0 1008439
17:00+17wnw3857100 0.0 1008241
20:00+9nne51186100 0.2 1015779
8 may, sat
sat823:00+7nnw3695100 2.6 1020978
02:00+7wsw2495100 5.9 1022209
05:00+6sw1192100 0.0 102272
08:00+8nw227997 0.1 1024494
11:00+12nne225731 0.0 10231392
14:00+14ne3251100 0.0 10221530
17:00+13ene335699 0.0 10211115
20:00+8e227447 0.0 102320
9 may, sun
sun923:00+6se228095 0.0 102415
02:00+5se228346 0.0 102318
05:00+5se22885 0.0 102319
08:00+11ese24695 0.0 1022239
11:00+16e45525 0.0 1021726
14:00+20e45445 0.0 1019850
17:00+19ene46560 0.0 1018460
20:00+12e11770 0.0 101811
10 may, mon
mon1023:00+11sse11820 0.0 101811
02:00+10ssw11800 0.0 101811
05:00+9s11770 0.0 101811
08:00+15s11655 0.0 1018128
11:00+22e23525 0.0 1017649
14:00+24ene43535 0.0 1016875
17:00+23ene34640 0.0 1015545
20:00+17e11830 0.0 101511
11 may, tue
tue1123:00+15s11861 0.0 101611
02:00+13ssw11800 0.0 101511
05:00+12ssw117899 0.0 101511
08:00+17ssw016969 0.0 1015134
11:00+22ene22605 0.0 1013583
14:00+25ene33590 0.0 1011958
17:00+24ene44690 0.0 1010768
20:00+18e22890 0.0 100914